• In Hungary
  • List of Countries
  • For 7 days
  • Water Temperature
  • Satellite Maps
  • Weather Map
  • News
  • Weather Widgets
  • user-avatar
    Login

    Hourly Weather Kurkent

    Today, 23 September, Sunday

    Time Temperature Precipitation Wind Pressure Humidity
    00:00 +19°C° 0 mm 1 mps 713 mmHg 80%
    01:00 +19°C° 0 mm 1 mps 712 mmHg 81%
    02:00 +19°C° 0 mm 1 mps 712 mmHg 81%
    03:00 +19°C° 0 mm 1 mps 712 mmHg 81%
    04:00 +19°C° 0 mm 1 mps 712 mmHg 80%
    05:00 +19°C° 0 mm 1 mps 712 mmHg 80%
    06:00 +19°C° 0 mm 1 mps 712 mmHg 80%
    07:00 +20°C° 0 mm 1 mps 712 mmHg 74%
    08:00 +21°C° 0 mm 2 mps 713 mmHg 67%
    09:00 +24°C° 0 mm 2 mps 713 mmHg 60%
    10:00 +24°C° 0.1 mm 3 mps 713 mmHg 59%
    11:00 +25°C° 0.1 mm 3 mps 713 mmHg 57%
    12:00 +26°C° 0.1 mm 4 mps 712 mmHg 55%
    13:00 +25°C° 0.2 mm 4 mps 712 mmHg 57%
    14:00 +25°C° 0.2 mm 3 mps 712 mmHg 59%
    15:00 +24°C° 0.2 mm 3 mps 712 mmHg 61%
    16:00 +22°C° 0.2 mm 3 mps 712 mmHg 67%
    17:00 +21°C° 0.2 mm 2 mps 712 mmHg 73%
    18:00 +20°C° 0.2 mm 1 mps 712 mmHg 79%
    19:00 +20°C° 0 mm 1 mps 712 mmHg 79%
    20:00 +20°C° 0 mm 1 mps 712 mmHg 79%
    21:00 +20°C° 0 mm 1 mps 712 mmHg 79%
    22:00 +19°C° 0 mm 1 mps 712 mmHg 78%
    23:00 +19°C° 0 mm 1 mps 712 mmHg 77%

    Tomorrow, 24 September, Monday

    Time Temperature Precipitation Wind Pressure Humidity
    00:00 +19°C° 0 mm 1 mps 712 mmHg 76%
    01:00 +19°C° 0 mm 1 mps 712 mmHg 75%
    02:00 +19°C° 0 mm 1 mps 712 mmHg 74%
    03:00 +18°C° 0 mm 1 mps 712 mmHg 74%
    04:00 +18°C° 0 mm 1 mps 712 mmHg 73%
    05:00 +17°C° 0 mm 2 mps 712 mmHg 72%
    06:00 +18°C° 0 mm 2 mps 712 mmHg 71%
    07:00 +20°C° 0 mm 2 mps 713 mmHg 64%
    08:00 +23°C° 0 mm 2 mps 713 mmHg 56%
    09:00 +25°C° 0 mm 2 mps 714 mmHg 49%
    10:00 +25°C° 0 mm 2 mps 714 mmHg 47%
    11:00 +26°C° 0 mm 3 mps 714 mmHg 46%
    12:00 +26°C° 0 mm 3 mps 714 mmHg 44%
    13:00 +26°C° 0 mm 3 mps 714 mmHg 46%
    14:00 +26°C° 0 mm 3 mps 714 mmHg 47%
    15:00 +25°C° 0 mm 3 mps 713 mmHg 49%
    16:00 +24°C° 0 mm 2 mps 713 mmHg 55%
    17:00 +21°C° 0 mm 2 mps 713 mmHg 61%
    18:00 +20°C° 0 mm 1 mps 713 mmHg 67%
    19:00 +19°C° 0 mm 2 mps 713 mmHg 67%
    20:00 +19°C° 0 mm 2 mps 713 mmHg 67%
    21:00 +19°C° 0 mm 2 mps 713 mmHg 66%
    22:00 +18°C° 0 mm 2 mps 713 mmHg 66%
    23:00 +18°C° 0 mm 2 mps 712 mmHg 66%

    Day after tomorrow, 25 September, Tuesday

    Time Temperature Precipitation Wind Pressure Humidity
    00:00 +18°C° 0 mm 2 mps 712 mmHg 65%
    01:00 +18°C° 0 mm 2 mps 712 mmHg 64%
    02:00 +18°C° 0 mm 3 mps 711 mmHg 64%
    03:00 +18°C° 0 mm 3 mps 711 mmHg 63%
    04:00 +18°C° 0 mm 3 mps 711 mmHg 63%
    05:00 +18°C° 0 mm 3 mps 711 mmHg 62%
    06:00 +18°C° 0 mm 3 mps 710 mmHg 62%
    07:00 +21°C° 0 mm 3 mps 710 mmHg 54%
    08:00 +25°C° 0 mm 2 mps 711 mmHg 46%
    09:00 +27°C° 0 mm 2 mps 711 mmHg 38%
    10:00 +28°C° 0 mm 3 mps 710 mmHg 37%
    11:00 +29°C° 0 mm 3 mps 710 mmHg 35%
    12:00 +30°C° 0 mm 3 mps 710 mmHg 33%
    13:00 +30°C° 0 mm 3 mps 709 mmHg 34%
    14:00 +30°C° 0 mm 3 mps 709 mmHg 36%
    15:00 +30°C° 0 mm 3 mps 708 mmHg 37%
    16:00 +27°C° 0 mm 3 mps 708 mmHg 46%
    17:00 +25°C° 0 mm 2 mps 708 mmHg 54%
    18:00 +23°C° 0 mm 1 mps 708 mmHg 63%
    19:00 +21°C° 0 mm 2 mps 708 mmHg 62%
    20:00 +21°C° 0 mm 2 mps 709 mmHg 61%
    21:00 +21°C° 0 mm 2 mps 709 mmHg 61%
    22:00 +21°C° 0 mm 2 mps 709 mmHg 60%
    23:00 +20°C° 0 mm 2 mps 709 mmHg 60%

    26 September, Wednesday

    Time Temperature Precipitation Wind Pressure Humidity
    00:00 +20°C° 0 mm 2 mps 709 mmHg 60%
    01:00 +20°C° 0 mm 2 mps 709 mmHg 60%
    02:00 +20°C° 0 mm 2 mps 709 mmHg 61%
    03:00 +19°C° 0 mm 2 mps 709 mmHg 62%
    04:00 +19°C° 0 mm 2 mps 709 mmHg 67%
    05:00 +18°C° 0 mm 3 mps 710 mmHg 71%
    06:00 +18°C° 0 mm 3 mps 710 mmHg 76%
    07:00 +19°C° 0 mm 4 mps 711 mmHg 71%
    08:00 +21°C° 0 mm 5 mps 711 mmHg 66%
    09:00 +22°C° 0 mm 6 mps 712 mmHg 61%
    10:00 +21°C° 0 mm 6 mps 712 mmHg 63%
    11:00 +21°C° 0 mm 6 mps 712 mmHg 65%
    12:00 +20°C° 0 mm 6 mps 712 mmHg 67%
    13:00 +19°C° 0 mm 6 mps 713 mmHg 70%
    14:00 +17°C° 0 mm 6 mps 713 mmHg 72%
    15:00 +17°C° 0 mm 5 mps 713 mmHg 74%
    16:00 +16°C° 0 mm 5 mps 713 mmHg 78%
    17:00 +15°C° 0 mm 5 mps 714 mmHg 82%
    18:00 +14°C° 0 mm 4 mps 714 mmHg 86%
    19:00 +14°C° 0 mm 4 mps 714 mmHg 86%
    20:00 +13°C° 0 mm 4 mps 715 mmHg 86%
    21:00 +13°C° 0 mm 3 mps 715 mmHg 86%
    22:00 +13°C° 0 mm 3 mps 715 mmHg 86%
    23:00 +13°C° 0 mm 3 mps 715 mmHg 87%

    27 September, Thursday

    Time Temperature Precipitation Wind Pressure Humidity
    00:00 +13°C° 0 mm 3 mps 715 mmHg 87%
    01:00 +12°C° 0 mm 3 mps 716 mmHg 87%
    02:00 +13°C° 0 mm 2 mps 716 mmHg 87%
    03:00 +13°C° 0 mm 2 mps 716 mmHg 87%
    04:00 +13°C° 0 mm 2 mps 716 mmHg 87%
    05:00 +13°C° 0 mm 2 mps 716 mmHg 87%
    06:00 +13°C° 0 mm 2 mps 716 mmHg 87%
    07:00 +13°C° 0 mm 3 mps 717 mmHg 80%
    08:00 +14°C° 0 mm 3 mps 717 mmHg 74%
    09:00 +17°C° 0 mm 3 mps 717 mmHg 67%
    10:00 +17°C° 0 mm 4 mps 717 mmHg 65%
    11:00 +18°C° 0 mm 4 mps 717 mmHg 63%
    12:00 +19°C° 0 mm 4 mps 717 mmHg 61%
    13:00 +19°C° 0 mm 4 mps 717 mmHg 64%
    14:00 +18°C° 0 mm 3 mps 717 mmHg 66%
    15:00 +18°C° 0 mm 3 mps 716 mmHg 69%
    16:00 +17°C° 0 mm 2 mps 716 mmHg 74%
    17:00 +16°C° 0 mm 2 mps 716 mmHg 79%
    18:00 +15°C° 0 mm 1 mps 716 mmHg 84%
    19:00 +14°C° 0 mm 1 mps 717 mmHg 85%
    20:00 +14°C° 0 mm 1 mps 717 mmHg 85%
    21:00 +14°C° 0 mm 1 mps 717 mmHg 85%
    22:00 +14°C° 0 mm 1 mps 716 mmHg 84%
    23:00 +14°C° 0 mm 1 mps 716 mmHg 84%

    28 September, Friday

    Time Temperature Precipitation Wind Pressure Humidity
    00:00 +14°C° 0 mm 1 mps 716 mmHg 83%
    01:00 +14°C° 0 mm 1 mps 716 mmHg 82%
    02:00 +14°C° 0 mm 1 mps 715 mmHg 80%
    03:00 +14°C° 0 mm 1 mps 715 mmHg 79%
    04:00 +14°C° 0 mm 1 mps 715 mmHg 79%
    05:00 +14°C° 0 mm 1 mps 715 mmHg 79%
    06:00 +14°C° 0 mm 2 mps 715 mmHg 79%
    07:00 +16°C° 0 mm 2 mps 715 mmHg 73%
    08:00 +17°C° 0 mm 2 mps 715 mmHg 68%
    09:00 +19°C° 0 mm 2 mps 715 mmHg 62%
    10:00 +20°C° 0.1 mm 3 mps 715 mmHg 61%
    11:00 +21°C° 0.1 mm 3 mps 715 mmHg 59%
    12:00 +21°C° 0.1 mm 3 mps 715 mmHg 57%
    13:00 +22°C° 0 mm 3 mps 714 mmHg 58%
    14:00 +22°C° 0 mm 3 mps 714 mmHg 58%
    15:00 +22°C° 0 mm 3 mps 713 mmHg 59%
    16:00 +20°C° 0 mm 3 mps 713 mmHg 67%
    17:00 +18°C° 0 mm 2 mps 713 mmHg 75%
    18:00 +17°C° 0 mm 2 mps 713 mmHg 83%
    19:00 +16°C° 0 mm 2 mps 713 mmHg 81%
    20:00 +16°C° 0 mm 2 mps 713 mmHg 79%
    21:00 +16°C° 0 mm 2 mps 713 mmHg 77%
    22:00 +16°C° 0 mm 2 mps 712 mmHg 75%
    23:00 +16°C° 0 mm 2 mps 712 mmHg 73%
    Show more